^^
Saratoga-Weather Station Historical Data
Daily Summary for February 28, 2020 Units:  Metric    English   Both
Daily Weekly Monthly Yearly Custom
  High: Low: Average:
Temperature: 25.5 °C 17 °C 22 °C
Dew Point: 16.8 °C 9.9 °C 13.3 °C
Humidity: 75% 46% 59%
Wind Speed: 20.9km/h 0km/h 6.9km/h
Wind Gust: 27.4km/h - -
Wind- - West
Pressure: 1016.6 hPa 1008.1 hPa -
Precipitation: 0.0 mm    
Historical Graphs
 
 
Tabular Data for February 28, 2020
Time Temperature Dew Point Pressure Wind Wind Speed Wind Gust Humidity Rainfall Rate (Hourly) solar
00:02 23.7 °C 14.1 °C 1008.1 hPa SW 1.4 km/h 1.6 km/h 55% 0.0 mm 0 W/m2
00:07 23.9 °C 14.3 °C 1008.1 hPa NNW 3.2 km/h 4.8 km/h 55% 0.0 mm 0 W/m2
00:12 24.1 °C 14.2 °C 1008.1 hPa West 1.4 km/h 4.8 km/h 54% 0.0 mm 0 W/m2
00:18 24.2 °C 14.3 °C 1008.1 hPa Calm   3.2 km/h 54% 0.0 mm 0 W/m2
00:23 24.3 °C 14.4 °C 1008.1 hPa West 1.4 km/h 6.4 km/h 54% 0.0 mm 0 W/m2
00:28 24.3 °C 14.1 °C 1008.1 hPa SW 4.7 km/h 4.8 km/h 53% 0.0 mm 0 W/m2
00:33 24.4 °C 14.2 °C 1008.1 hPa WSW 1.4 km/h 9.7 km/h 53% 0.0 mm 0 W/m2
00:38 24.6 °C 14.4 °C 1008.1 hPa WNW 3.2 km/h 6.4 km/h 53% 0.0 mm 0 W/m2
00:43 24.7 °C 14.5 °C 1008.1 hPa West 3.2 km/h 3.2 km/h 53% 0.0 mm 0 W/m2
00:48 24.6 °C 14.1 °C 1008.1 hPa West 3.2 km/h 3.2 km/h 52% 0.0 mm 0 W/m2
00:53 24.6 °C 14.1 °C 1008.1 hPa West 1.4 km/h 8 km/h 52% 0.0 mm 0 W/m2
00:58 24.4 °C 13.9 °C 1008.5 hPa West 1.4 km/h 6.4 km/h 52% 0.0 mm 0 W/m2
01:03 24.4 °C 13.9 °C 1008.5 hPa South 1.4 km/h 11.3 km/h 52% 0.0 mm 0 W/m2
01:08 24.5 °C 13.7 °C 1008.5 hPa West 6.4 km/h 16.1 km/h 51% 0.0 mm 0 W/m2
01:13 24.4 °C 13.6 °C 1008.5 hPa West 6.4 km/h 11.3 km/h 51% 0.0 mm 0 W/m2
01:18 24.3 °C 13.5 °C 1008.5 hPa WNW 1.4 km/h 16.1 km/h 51% 0.0 mm 0 W/m2
01:23 24.2 °C 13.7 °C 1008.5 hPa West 9.7 km/h 11.3 km/h 52% 0.0 mm 0 W/m2
01:28 24.1 °C 13.6 °C 1008.5 hPa West 11.1 km/h 12.9 km/h 52% 0.0 mm 0 W/m2
01:33 23.9 °C 13.4 °C 1008.5 hPa NW 7.9 km/h 14.5 km/h 52% 0.0 mm 0 W/m2
01:38 23.8 °C 13.4 °C 1008.5 hPa WNW 4.7 km/h 9.7 km/h 52% 0.0 mm 0 W/m2
01:43 23.7 °C 13.6 °C 1008.5 hPa West 6.4 km/h 14.5 km/h 53% 0.0 mm 0 W/m2
01:48 23.6 °C 13.2 °C 1008.5 hPa West 4.7 km/h 9.7 km/h 52% 0.0 mm 0 W/m2
01:53 23.6 °C 13.5 °C 1008.5 hPa West 6.4 km/h 14.5 km/h 53% 0.0 mm 0 W/m2
01:58 23.4 °C 13 °C 1008.5 hPa West 6.4 km/h 11.3 km/h 52% 0.0 mm 0 W/m2
02:03 23.3 °C 13.2 °C 1008.5 hPa West 4.7 km/h 9.7 km/h 53% 0.0 mm 0 W/m2
02:08 23.2 °C 13.1 °C 1008.5 hPa West 4.7 km/h 11.3 km/h 53% 0.0 mm 0 W/m2
02:13 23.2 °C 13.1 °C 1008.5 hPa NW 3.2 km/h 14.5 km/h 53% 0.0 mm 0 W/m2
02:18 23.2 °C 13.1 °C 1008.5 hPa WNW 3.2 km/h 6.4 km/h 53% 0.0 mm 0 W/m2
02:23 23.1 °C 13 °C 1008.5 hPa SW 6.4 km/h 9.7 km/h 53% 0.0 mm 0 W/m2
02:28 23 °C 12.9 °C 1008.5 hPa SW 3.2 km/h 12.9 km/h 53% 0.0 mm 0 W/m2
02:33 22.9 °C 13.1 °C 1008.5 hPa SW 6.4 km/h 11.3 km/h 54% 0.0 mm 0 W/m2
02:38 22.8 °C 13 °C 1008.8 hPa WSW 4.7 km/h 14.5 km/h 54% 0.0 mm 0 W/m2
02:43 22.8 °C 13 °C 1008.8 hPa West 11.1 km/h 17.7 km/h 54% 0.0 mm 0 W/m2
02:48 22.7 °C 12.9 °C 1008.8 hPa WNW 4.7 km/h 11.3 km/h 54% 0.0 mm 0 W/m2
02:53 22.7 °C 12.9 °C 1008.8 hPa WNW 13 km/h 12.9 km/h 54% 0.0 mm 0 W/m2
02:58 22.6 °C 13.1 °C 1008.8 hPa WNW 13 km/h 17.7 km/h 55% 0.0 mm 0 W/m2
03:03 22.5 °C 13 °C 1008.8 hPa SSW 7.9 km/h 16.1 km/h 55% 0.0 mm 0 W/m2
03:08 22.4 °C 13.2 °C 1009.1 hPa West 4.7 km/h 16.1 km/h 56% 0.0 mm 0 W/m2
03:13 22.4 °C 13.5 °C 1009.1 hPa SW 11.1 km/h 14.5 km/h 57% 0.0 mm 0 W/m2
03:18 22.3 °C 13.4 °C 1009.1 hPa West 9.7 km/h 12.9 km/h 57% 0.0 mm 0 W/m2
03:23 22.3 °C 13.6 °C 1009.1 hPa WNW 13 km/h 14.5 km/h 58% 0.0 mm 0 W/m2
03:28 22.2 °C 13.5 °C 1009.1 hPa WSW 3.2 km/h 12.9 km/h 58% 0.0 mm 0 W/m2
03:33 22.1 °C 13.4 °C 1009.1 hPa West 6.4 km/h 12.9 km/h 58% 0.0 mm 0 W/m2
03:44 21.9 °C 13.5 °C 1009.1 hPa West 9.7 km/h 17.7 km/h 59% 0.0 mm 0 W/m2
03:49 21.8 °C 13.4 °C 1009.1 hPa West 6.4 km/h 11.3 km/h 59% 0.0 mm 0 W/m2
03:54 21.7 °C 13.6 °C 1009.1 hPa NW 6.4 km/h 11.3 km/h 60% 0.0 mm 0 W/m2
03:59 21.6 °C 13.5 °C 1009.1 hPa West 6.4 km/h 6.4 km/h 60% 0.0 mm 0 W/m2
04:04 21.5 °C 13.4 °C 1009.1 hPa WSW 4.7 km/h 9.7 km/h 60% 0.0 mm 0 W/m2
04:09 21.4 °C 13.3 °C 1009.1 hPa WSW 4.7 km/h 11.3 km/h 60% 0.0 mm 0 W/m2
04:14 21.3 °C 13.5 °C 1009.5 hPa West 6.4 km/h 6.4 km/h 61% 0.0 mm 0 W/m2
04:19 21.3 °C 13.7 °C 1009.5 hPa WSW 4.7 km/h 9.7 km/h 62% 0.0 mm 0 W/m2
04:24 21.3 °C 13.7 °C 1009.5 hPa West 6.4 km/h 12.9 km/h 62% 0.0 mm 0 W/m2
04:29 21.2 °C 13.9 °C 1009.5 hPa West 11.1 km/h 16.1 km/h 63% 0.0 mm 0 W/m2
04:34 21.2 °C 14.1 °C 1009.5 hPa WNW 11.1 km/h 11.3 km/h 64% 0.0 mm 0 W/m2
04:39 21.1 °C 14 °C 1009.5 hPa West 9.7 km/h 11.3 km/h 64% 0.0 mm 0 W/m2
04:44 21.1 °C 14.3 °C 1009.5 hPa West 4.7 km/h 6.4 km/h 65% 0.0 mm 0 W/m2
04:49 20.9 °C 14.1 °C 1009.5 hPa NW 3.2 km/h 14.5 km/h 65% 0.0 mm 0 W/m2
04:54 20.9 °C 14.3 °C 1009.5 hPa NW 4.7 km/h 9.7 km/h 66% 0.0 mm 0 W/m2
04:59 20.8 °C 14.4 °C 1009.8 hPa WNW 6.4 km/h 12.9 km/h 67% 0.0 mm 0 W/m2
05:04 20.7 °C 14.4 °C 1009.5 hPa West 6.4 km/h 11.3 km/h 67% 0.0 mm 0 W/m2
05:09 20.7 °C 14.6 °C 1009.8 hPa WSW 3.2 km/h 9.7 km/h 68% 0.0 mm 0 W/m2
05:14 20.6 °C 14.5 °C 1009.8 hPa West 3.2 km/h 12.9 km/h 68% 0.0 mm 0 W/m2
05:19 20.6 °C 14.5 °C 1009.8 hPa West 6.4 km/h 6.4 km/h 68% 0.0 mm 0 W/m2
05:24 20.6 °C 14.7 °C 1009.8 hPa WNW 4.7 km/h 11.3 km/h 69% 0.0 mm 0 W/m2
05:30 20.6 °C 14.7 °C 1009.8 hPa South 1.4 km/h 4.8 km/h 69% 0.0 mm 0 W/m2
05:35 20.5 °C 14.6 °C 1009.8 hPa West 6.4 km/h 8 km/h 69% 0.0 mm 0 W/m2
05:40 20.4 °C 14.5 °C 1010.2 hPa WNW 3.2 km/h 6.4 km/h 69% 0.0 mm 0 W/m2
05:45 20.4 °C 14.5 °C 1010.2 hPa West 1.4 km/h 6.4 km/h 69% 0.0 mm 0 W/m2
05:50 20.4 °C 14.7 °C 1010.2 hPa West 4.7 km/h 4.8 km/h 70% 0.0 mm 0 W/m2
05:55 20.3 °C 14.6 °C 1010.2 hPa Calm   3.2 km/h 70% 0.0 mm 0 W/m2
06:00 20.3 °C 14.6 °C 1010.2 hPa WNW 1.4 km/h 4.8 km/h 70% 0.0 mm 0 W/m2
06:05 20.3 °C 14.6 °C 1010.2 hPa Calm   3.2 km/h 70% 0.0 mm 0 W/m2
06:10 20.3 °C 14.6 °C 1010.2 hPa Calm   1.6 km/h 70% 0.0 mm 0 W/m2
06:15 20.3 °C 14.6 °C 1010.2 hPa ENE 1.4 km/h 1.6 km/h 70% 0.0 mm 5 W/m2
06:20 20.2 °C 14.6 °C 1010.2 hPa WSW 7.9 km/h 11.3 km/h 70% 0.0 mm 7 W/m2
06:25 20.2 °C 14.8 °C 1010.2 hPa West 4.7 km/h 4.8 km/h 71% 0.0 mm 11 W/m2
06:30 20.2 °C 14.8 °C 1010.2 hPa NNW 1.4 km/h 11.3 km/h 71% 0.0 mm 9 W/m2
06:35 20.2 °C 14.8 °C 1010.5 hPa NW 1.4 km/h 1.6 km/h 71% 0.0 mm 11 W/m2
06:40 20.2 °C 14.8 °C 1010.5 hPa Calm   6.4 km/h 71% 0.0 mm 14 W/m2
06:45 20.1 °C 14.9 °C 1010.5 hPa NW 1.4 km/h 1.6 km/h 72% 0.0 mm 35 W/m2
06:50 20.1 °C 14.9 °C 1010.5 hPa North 1.4 km/h 4.8 km/h 72% 0.0 mm 26 W/m2
06:55 20.1 °C 14.9 °C 1010.5 hPa NW 3.2 km/h 4.8 km/h 72% 0.0 mm 30 W/m2
07:00 20.1 °C 15.1 °C 1010.5 hPa NNW 9.7 km/h 12.9 km/h 73% 0.0 mm 26 W/m2
07:05 20.1 °C 15.1 °C 1010.5 hPa NW 4.7 km/h 4.8 km/h 73% 0.0 mm 23 W/m2
07:10 20.1 °C 15.1 °C 1010.8 hPa WNW 1.4 km/h 12.9 km/h 73% 0.0 mm 30 W/m2
07:16 20.1 °C 15.1 °C 1010.8 hPa Calm   1.6 km/h 73% 0.0 mm 44 W/m2
07:21 20.1 °C 15.3 °C 1010.8 hPa North 3.2 km/h 3.2 km/h 74% 0.0 mm 37 W/m2
07:26 20.1 °C 15.3 °C 1010.8 hPa NW 3.2 km/h 12.9 km/h 74% 0.0 mm 47 W/m2
07:31 20.2 °C 15.4 °C 1010.8 hPa Calm   1.6 km/h 74% 0.0 mm 88 W/m2
07:36 20.3 °C 15.5 °C 1010.8 hPa NNW 6.4 km/h 9.7 km/h 74% 0.0 mm 60 W/m2
07:41 20.3 °C 15.5 °C 1010.8 hPa WSW 1.4 km/h 4.8 km/h 74% 0.0 mm 56 W/m2
07:46 20.3 °C 15.5 °C 1010.8 hPa WSW 3.2 km/h 3.2 km/h 74% 0.0 mm 56 W/m2
07:51 20.3 °C 15.5 °C 1010.8 hPa West 1.4 km/h 4.8 km/h 74% 0.0 mm 49 W/m2
07:56 20.4 °C 15.6 °C 1010.8 hPa NW 1.4 km/h 9.7 km/h 74% 0.0 mm 58 W/m2
08:01 20.5 °C 15.7 °C 1010.8 hPa SSE 1.4 km/h 4.8 km/h 74% 0.0 mm 104 W/m2
08:06 20.6 °C 16 °C 1010.8 hPa WSW 1.4 km/h 6.4 km/h 75% 0.0 mm 190 W/m2
08:11 20.8 °C 16 °C 1010.8 hPa North 1.4 km/h 6.4 km/h 74% 0.0 mm 255 W/m2
08:16 21.1 °C 16.3 °C 1010.8 hPa West 4.7 km/h 4.8 km/h 74% 0.0 mm 258 W/m2
08:21 21.2 °C 16.4 °C 1010.8 hPa WNW 4.7 km/h 8 km/h 74% 0.0 mm 316 W/m2
08:26 21.3 °C 16.3 °C 1010.8 hPa NW 6.4 km/h 11.3 km/h 73% 0.0 mm 155 W/m2
08:31 21.3 °C 16.3 °C 1010.8 hPa West 3.2 km/h 9.7 km/h 73% 0.0 mm 84 W/m2
08:36 21.4 °C 16.6 °C 1010.8 hPa WSW 4.7 km/h 11.3 km/h 74% 0.0 mm 91 W/m2
08:41 21.6 °C 16.8 °C 1010.8 hPa NNW 6.4 km/h 6.4 km/h 74% 0.0 mm 134 W/m2
08:46 21.9 °C 16.6 °C 1011.2 hPa WNW 14.3 km/h 22.5 km/h 72% 0.0 mm 204 W/m2
08:51 21.8 °C 16.7 °C 1010.8 hPa West 9.7 km/h 9.7 km/h 73% 0.0 mm 216 W/m2
08:56 21.8 °C 16.5 °C 1010.8 hPa WNW 3.2 km/h 22.5 km/h 72% 0.0 mm 199 W/m2
09:01 21.8 °C 16.7 °C 1010.8 hPa WNW 6.4 km/h 12.9 km/h 73% 0.0 mm 186 W/m2
09:06 21.8 °C 16.7 °C 1010.8 hPa WNW 11.1 km/h 19.3 km/h 73% 0.0 mm 186 W/m2
09:11 21.7 °C 16.6 °C 1010.8 hPa West 4.7 km/h 9.7 km/h 73% 0.0 mm 102 W/m2
09:16 21.6 °C 16.6 °C 1010.8 hPa West 6.4 km/h 11.3 km/h 73% 0.0 mm 107 W/m2
09:21 21.5 °C 16.7 °C 1011.2 hPa WNW 7.9 km/h 16.1 km/h 74% 0.0 mm 178 W/m2
09:26 21.6 °C 16.8 °C 1011.2 hPa West 6.4 km/h 9.7 km/h 74% 0.0 mm 183 W/m2
09:31 21.6 °C 16.6 °C 1011.2 hPa West 6.4 km/h 11.3 km/h 73% 0.0 mm 172 W/m2
09:36 21.5 °C 16.5 °C 1011.2 hPa WSW 6.4 km/h 12.9 km/h 73% 0.0 mm 139 W/m2
09:41 21.4 °C 16.4 °C 1011.2 hPa West 6.4 km/h 14.5 km/h 73% 0.0 mm 102 W/m2
09:47 21.4 °C 16.6 °C 1011.2 hPa West 6.4 km/h 11.3 km/h 74% 0.0 mm 114 W/m2
09:52 21.3 °C 16.3 °C 1011.5 hPa NW 7.9 km/h 11.3 km/h 73% 0.0 mm 278 W/m2
09:57 21.4 °C 16.4 °C 1011.5 hPa NW 6.4 km/h 16.1 km/h 73% 0.0 mm 675 W/m2
10:02 21.8 °C 16.7 °C 1011.5 hPa WNW 14.3 km/h 14.5 km/h 73% 0.0 mm 290 W/m2
10:07 22.1 °C 16.6 °C 1011.5 hPa West 11.1 km/h 14.5 km/h 71% 0.0 mm 420 W/m2
10:12 22 °C 16.5 °C 1011.9 hPa WNW 11.1 km/h 19.3 km/h 71% 0.0 mm 260 W/m2
10:17 21.7 °C 16.2 °C 1011.9 hPa WSW 13 km/h 12.9 km/h 71% 0.0 mm 548 W/m2
10:22 21.6 °C 16.1 °C 1011.9 hPa West 4.7 km/h 14.5 km/h 71% 0.0 mm 258 W/m2
10:27 21.4 °C 15.5 °C 1011.9 hPa WNW 14.3 km/h 16.1 km/h 69% 0.0 mm 260 W/m2
10:32 21.3 °C 15.2 °C 1011.9 hPa WNW 13 km/h 14.5 km/h 68% 0.0 mm 294 W/m2
10:37 21.2 °C 15.3 °C 1011.9 hPa West 6.4 km/h 16.1 km/h 69% 0.0 mm 223 W/m2
10:42 21.1 °C 15.2 °C 1011.9 hPa West 4.7 km/h 12.9 km/h 69% 0.0 mm 216 W/m2
10:47 21.1 °C 15.4 °C 1011.9 hPa West 4.7 km/h 12.9 km/h 70% 0.0 mm 304 W/m2
10:52 21.3 °C 15.6 °C 1012.2 hPa NW 9.7 km/h 14.5 km/h 70% 0.0 mm 385 W/m2
10:57 21.3 °C 15.4 °C 1012.2 hPa West 3.2 km/h 12.9 km/h 69% 0.0 mm 258 W/m2
11:02 21.3 °C 15.6 °C 1012.2 hPa WNW 11.1 km/h 14.5 km/h 70% 0.0 mm 251 W/m2
11:07 21.3 °C 15.6 °C 1012.2 hPa WNW 13 km/h 19.3 km/h 70% 0.0 mm 563 W/m2
11:12 21.5 °C 15.6 °C 1011.9 hPa WNW 11.1 km/h 12.9 km/h 69% 0.0 mm 563 W/m2
11:17 21.8 °C 15.9 °C 1011.9 hPa WNW 11.1 km/h 14.5 km/h 69% 0.0 mm 473 W/m2
11:22 21.8 °C 15.4 °C 1012.2 hPa West 4.7 km/h 11.3 km/h 67% 0.0 mm 580 W/m2
11:27 22 °C 15.6 °C 1012.2 hPa NW 13 km/h 16.1 km/h 67% 0.0 mm 629 W/m2
11:32 22.1 °C 15.7 °C 1012.2 hPa WNW 11.1 km/h 12.9 km/h 67% 0.0 mm 411 W/m2
11:37 21.9 °C 15.5 °C 1012.5 hPa West 9.7 km/h 16.1 km/h 67% 0.0 mm 313 W/m2
11:42 21.8 °C 15.2 °C 1012.2 hPa WNW 11.1 km/h 14.5 km/h 66% 0.0 mm 297 W/m2
11:47 21.7 °C 15.1 °C 1012.2 hPa WNW 11.1 km/h 16.1 km/h 66% 0.0 mm 399 W/m2
11:52 21.9 °C 15 °C 1012.5 hPa NW 6.4 km/h 12.9 km/h 65% 0.0 mm 343 W/m2
11:57 22.3 °C 15.2 °C 1012.5 hPa WNW 16.3 km/h 16.1 km/h 64% 0.0 mm 350 W/m2
12:02 22.2 °C 15.1 °C 1012.5 hPa WNW 11.1 km/h 19.3 km/h 64% 0.0 mm 404 W/m2
12:07 22.3 °C 15.2 °C 1012.5 hPa WSW 13 km/h 14.5 km/h 64% 0.0 mm 406 W/m2
12:12 22.4 °C 15 °C 1012.5 hPa West 9.7 km/h 17.7 km/h 63% 0.0 mm 364 W/m2
12:17 22.2 °C 14.6 °C 1012.5 hPa NNW 7.9 km/h 12.9 km/h 62% 0.0 mm 415 W/m2
12:22 22.3 °C 14.9 °C 1012.5 hPa West 3.2 km/h 6.4 km/h 63% 0.0 mm 770 W/m2
12:32 22.6 °C 14.9 °C 1012.5 hPa WNW 7.9 km/h 19.3 km/h 62% 0.0 mm 810 W/m2
12:37 22.5 °C 14.9 °C 1012.5 hPa WSW 1.4 km/h 12.9 km/h 62% 0.0 mm 251 W/m2
12:42 22.5 °C 14.6 °C 1012.9 hPa West 17.7 km/h 19.3 km/h 61% 0.0 mm 315 W/m2
12:48 22.7 °C 14.8 °C 1012.9 hPa WNW 11.1 km/h 16.1 km/h 61% 0.0 mm 339 W/m2
12:53 23.1 °C 14.9 °C 1012.9 hPa NW 17.7 km/h 24.1 km/h 60% 0.0 mm 1042 W/m2
12:58 23.3 °C 15.1 °C 1012.9 hPa NW 17.7 km/h 24.1 km/h 60% 0.0 mm 1046 W/m2
13:03 23.3 °C 14.3 °C 1012.5 hPa SW 16.3 km/h 19.3 km/h 57% 0.0 mm 353 W/m2
13:08 23.6 °C 14.9 °C 1012.5 hPa WNW 4.7 km/h 11.3 km/h 58% 0.0 mm 1088 W/m2
13:13 23.9 °C 14.6 °C 1012.5 hPa West 11.1 km/h 11.3 km/h 56% 0.0 mm 949 W/m2
13:18 23.9 °C 14.3 °C 1012.5 hPa West 4.7 km/h 17.7 km/h 55% 0.0 mm 251 W/m2
13:23 23.7 °C 14.1 °C 1012.9 hPa West 13 km/h 16.1 km/h 55% 0.0 mm 250 W/m2
13:28 23.6 °C 14 °C 1012.9 hPa NNW 6.4 km/h 11.3 km/h 55% 0.0 mm 178 W/m2
13:33 23.6 °C 14 °C 1012.5 hPa West 9.7 km/h 19.3 km/h 55% 0.0 mm 963 W/m2
13:38 23.6 °C 13.7 °C 1012.9 hPa NW 16.3 km/h 22.5 km/h 54% 0.0 mm 420 W/m2
13:43 23.7 °C 13.8 °C 1012.9 hPa WNW 7.9 km/h 19.3 km/h 54% 0.0 mm 338 W/m2
13:48 23.7 °C 13.8 °C 1012.5 hPa West 16.3 km/h 20.9 km/h 54% 0.0 mm 979 W/m2
13:53 24 °C 13.8 °C 1012.5 hPa NW 9.7 km/h 11.3 km/h 53% 0.0 mm 977 W/m2
13:58 24.3 °C 13.8 °C 1012.5 hPa WNW 6.4 km/h 8 km/h 52% 0.0 mm 947 W/m2
14:03 24.7 °C 13.9 °C 1012.5 hPa North 3.2 km/h 17.7 km/h 51% 0.0 mm 965 W/m2
14:08 24.9 °C 13.5 °C 1012.5 hPa NW 7.9 km/h 14.5 km/h 49% 0.0 mm 1042 W/m2
14:13 24.8 °C 13.7 °C 1012.5 hPa WSW 19.5 km/h 19.3 km/h 50% 0.0 mm 1021 W/m2
14:18 24.7 °C 13.6 °C 1012.5 hPa West 4.7 km/h 14.5 km/h 50% 0.0 mm 907 W/m2
14:24 24.2 °C 13.1 °C 1012.5 hPa West 16.3 km/h 22.5 km/h 50% 0.0 mm 241 W/m2
14:29 23.8 °C 13.1 °C 1012.5 hPa SW 6.4 km/h 22.5 km/h 51% 0.0 mm 216 W/m2
14:34 23.8 °C 13.4 °C 1012.2 hPa WNW 6.4 km/h 12.9 km/h 52% 0.0 mm 1065 W/m2
14:39 24.3 °C 13.5 °C 1012.2 hPa West 3.2 km/h 12.9 km/h 51% 0.0 mm 810 W/m2
14:44 24.8 °C 13.4 °C 1012.5 hPa WSW 14.3 km/h 20.9 km/h 49% 0.0 mm 921 W/m2
14:49 24.9 °C 13.5 °C 1012.5 hPa NNW 13 km/h 12.9 km/h 49% 0.0 mm 895 W/m2
14:54 25.3 °C 13.8 °C 1012.5 hPa NW 1.4 km/h 9.7 km/h 49% 0.0 mm 895 W/m2
14:59 25.4 °C 13.6 °C 1012.5 hPa WSW 6.4 km/h 14.5 km/h 48% 0.0 mm 846 W/m2
15:04 25.5 °C 13.7 °C 1012.5 hPa WSW 11.1 km/h 12.9 km/h 48% 0.0 mm 661 W/m2
15:09 25.2 °C 13.4 °C 1012.5 hPa West 13 km/h 12.9 km/h 48% 0.0 mm 536 W/m2
15:14 24.9 °C 13.5 °C 1012.5 hPa WNW 11.1 km/h 14.5 km/h 49% 0.0 mm 443 W/m2
15:19 25 °C 13.2 °C 1012.5 hPa West 6.4 km/h 12.9 km/h 48% 0.0 mm 738 W/m2
15:24 24.9 °C 12.8 °C 1012.5 hPa WNW 9.7 km/h 22.5 km/h 47% 0.0 mm 452 W/m2
15:29 24.6 °C 12.5 °C 1012.5 hPa NW 20.9 km/h 20.9 km/h 47% 0.0 mm 443 W/m2
15:34 24.5 °C 12.8 °C 1012.5 hPa West 11.1 km/h 25.7 km/h 48% 0.0 mm 320 W/m2
15:39 24.4 °C 12.7 °C 1012.5 hPa WSW 6.4 km/h 8 km/h 48% 0.0 mm 334 W/m2
15:44 24.4 °C 13 °C 1012.9 hPa WNW 11.1 km/h 19.3 km/h 49% 0.0 mm 369 W/m2
15:49 24.3 °C 12.9 °C 1012.9 hPa SW 17.7 km/h 17.7 km/h 49% 0.0 mm 346 W/m2
15:54 24.4 °C 13 °C 1012.9 hPa West 11.1 km/h 14.5 km/h 49% 0.0 mm 334 W/m2
15:59 24.3 °C 12.9 °C 1012.9 hPa WNW 7.9 km/h 12.9 km/h 49% 0.0 mm 371 W/m2
16:04 24.3 °C 12.9 °C 1012.9 hPa West 6.4 km/h 14.5 km/h 49% 0.0 mm 345 W/m2
16:09 24.2 °C 12.8 °C 1012.9 hPa West 9.7 km/h 27.4 km/h 49% 0.0 mm 348 W/m2
16:15 24.1 °C 12.7 °C 1012.9 hPa West 9.7 km/h 17.7 km/h 49% 0.0 mm 334 W/m2
16:20 23.9 °C 12.5 °C 1012.9 hPa West 6.4 km/h 25.7 km/h 49% 0.0 mm 297 W/m2
16:25 24.1 °C 12.7 °C 1012.9 hPa WNW 13 km/h 19.3 km/h 49% 0.0 mm 302 W/m2
16:30 24 °C 12.3 °C 1012.9 hPa WSW 11.1 km/h 20.9 km/h 48% 0.0 mm 338 W/m2
16:35 23.9 °C 12.2 °C 1012.9 hPa NW 6.4 km/h 14.5 km/h 48% 0.0 mm 311 W/m2
16:40 23.9 °C 12.2 °C 1012.9 hPa NW 7.9 km/h 20.9 km/h 48% 0.0 mm 318 W/m2
16:45 23.9 °C 12.2 °C 1012.9 hPa WNW 4.7 km/h 12.9 km/h 48% 0.0 mm 323 W/m2
16:50 24.1 °C 12.1 °C 1012.9 hPa NW 6.4 km/h 12.9 km/h 47% 0.0 mm 573 W/m2
16:55 24.3 °C 12.3 °C 1013.2 hPa NW 7.9 km/h 22.5 km/h 47% 0.0 mm 652 W/m2
17:00 24.4 °C 12.4 °C 1013.2 hPa WNW 4.7 km/h 6.4 km/h 47% 0.0 mm 698 W/m2
17:05 24.5 °C 12.1 °C 1013.5 hPa WNW 11.1 km/h 25.7 km/h 46% 0.0 mm 279 W/m2
17:10 24.1 °C 11.8 °C 1013.2 hPa NW 7.9 km/h 12.9 km/h 46% 0.0 mm 257 W/m2
17:15 23.8 °C 11.5 °C 1013.2 hPa WNW 7.9 km/h 20.9 km/h 46% 0.0 mm 274 W/m2
17:20 23.6 °C 11.6 °C 1013.2 hPa NNW 16.3 km/h 16.1 km/h 47% 0.0 mm 294 W/m2
17:25 23.6 °C 11.6 °C 1013.5 hPa WNW 13 km/h 14.5 km/h 47% 0.0 mm 327 W/m2
17:30 23.6 °C 11.6 °C 1013.5 hPa WNW 4.7 km/h 20.9 km/h 47% 0.0 mm 357 W/m2
17:35 23.5 °C 11.9 °C 1013.5 hPa NW 6.4 km/h 16.1 km/h 48% 0.0 mm 355 W/m2
17:40 23.6 °C 11.9 °C 1013.5 hPa West 16.3 km/h 20.9 km/h 48% 0.0 mm 304 W/m2
17:45 23.5 °C 11.5 °C 1013.5 hPa West 16.3 km/h 17.7 km/h 47% 0.0 mm 388 W/m2
17:50 23.4 °C 11.8 °C 1013.5 hPa WNW 14.3 km/h 19.3 km/h 48% 0.0 mm 596 W/m2
17:55 23.4 °C 11.8 °C 1013.5 hPa WSW 14.3 km/h 14.5 km/h 48% 0.0 mm 357 W/m2
18:00 23.3 °C 11.7 °C 1013.5 hPa North 7.9 km/h 16.1 km/h 48% 0.0 mm 424 W/m2
18:05 23.3 °C 11.7 °C 1013.9 hPa WNW 4.7 km/h 17.7 km/h 48% 0.0 mm 297 W/m2
18:10 23.2 °C 11.6 °C 1013.9 hPa NNW 7.9 km/h 19.3 km/h 48% 0.0 mm 345 W/m2
18:15 23.2 °C 11.6 °C 1013.9 hPa West 3.2 km/h 12.9 km/h 48% 0.0 mm 320 W/m2
18:20 23.2 °C 11.6 °C 1013.9 hPa WNW 4.7 km/h 19.3 km/h 48% 0.0 mm 218 W/m2
18:25 23.1 °C 11.5 °C 1013.9 hPa NW 14.3 km/h 14.5 km/h 48% 0.0 mm 204 W/m2
18:30 22.8 °C 11.5 °C 1013.9 hPa West 11.1 km/h 19.3 km/h 49% 0.0 mm 230 W/m2
18:35 22.7 °C 11.4 °C 1014.2 hPa WNW 7.9 km/h 12.9 km/h 49% 0.0 mm 253 W/m2
18:40 22.7 °C 11.4 °C 1014.2 hPa West 14.3 km/h 19.3 km/h 49% 0.0 mm 244 W/m2
18:45 22.8 °C 11.8 °C 1013.9 hPa WNW 4.7 km/h 16.1 km/h 50% 0.0 mm 410 W/m2
18:50 23 °C 11.7 °C 1014.2 hPa WNW 6.4 km/h 19.3 km/h 49% 0.0 mm 325 W/m2
18:55 23 °C 11.4 °C 1014.2 hPa WNW 13 km/h 19.3 km/h 48% 0.0 mm 294 W/m2
19:01 22.8 °C 11.5 °C 1014.2 hPa WNW 6.4 km/h 14.5 km/h 49% 0.0 mm 241 W/m2
19:06 22.7 °C 11.4 °C 1014.2 hPa WNW 16.3 km/h 16.1 km/h 49% 0.0 mm 185 W/m2
19:11 22.5 °C 11.6 °C 1014.2 hPa WNW 13 km/h 17.7 km/h 50% 0.0 mm 144 W/m2
19:16 22.4 °C 11.5 °C 1014.2 hPa NW 9.7 km/h 12.9 km/h 50% 0.0 mm 216 W/m2
19:21 22.4 °C 11.2 °C 1014.2 hPa WNW 14.3 km/h 17.7 km/h 49% 0.0 mm 199 W/m2
19:26 22.3 °C 11.4 °C 1014.6 hPa WSW 7.9 km/h 17.7 km/h 50% 0.0 mm 163 W/m2
19:31 22.3 °C 11.1 °C 1014.6 hPa WSW 14.3 km/h 25.7 km/h 49% 0.0 mm 132 W/m2
19:36 22.1 °C 11.2 °C 1014.6 hPa North 13 km/h 14.5 km/h 50% 0.0 mm 74 W/m2
19:41 21.8 °C 10.9 °C 1014.6 hPa NW 3.2 km/h 14.5 km/h 50% 0.0 mm 62 W/m2
19:46 21.7 °C 10.8 °C 1014.6 hPa West 3.2 km/h 8 km/h 50% 0.0 mm 54 W/m2
19:51 21.7 °C 10.8 °C 1014.6 hPa WNW 19.5 km/h 19.3 km/h 50% 0.0 mm 91 W/m2
19:56 21.7 °C 10.8 °C 1014.6 hPa West 13 km/h 14.5 km/h 50% 0.0 mm 74 W/m2
20:01 21.6 °C 10.4 °C 1014.9 hPa WSW 13 km/h 17.7 km/h 49% 0.0 mm 51 W/m2
20:06 21.4 °C 10.5 °C 1014.9 hPa WSW 4.7 km/h 6.4 km/h 50% 0.0 mm 69 W/m2
20:11 21.4 °C 10.5 °C 1014.9 hPa WSW 6.4 km/h 14.5 km/h 50% 0.0 mm 114 W/m2
20:16 21.4 °C 10.5 °C 1014.9 hPa West 6.4 km/h 9.7 km/h 50% 0.0 mm 67 W/m2
20:21 21.3 °C 10.5 °C 1014.9 hPa West 6.4 km/h 9.7 km/h 50% 0.0 mm 69 W/m2
20:27 21.3 °C 10.5 °C 1014.9 hPa WNW 7.9 km/h 8 km/h 50% 0.0 mm 84 W/m2
20:32 21.3 °C 10.5 °C 1014.9 hPa WNW 4.7 km/h 8 km/h 50% 0.0 mm 63 W/m2
20:37 21.2 °C 10.4 °C 1015.2 hPa WNW 6.4 km/h 6.4 km/h 50% 0.0 mm 44 W/m2
20:42 21 °C 10.2 °C 1015.2 hPa WNW 4.7 km/h 11.3 km/h 50% 0.0 mm 37 W/m2
20:47 20.8 °C 10 °C 1015.2 hPa WSW 4.7 km/h 6.4 km/h 50% 0.0 mm 30 W/m2
20:52 20.7 °C 10.2 °C 1015.2 hPa WSW 7.9 km/h 11.3 km/h 51% 0.0 mm 21 W/m2
20:57 20.5 °C 10 °C 1015.2 hPa West 4.7 km/h 11.3 km/h 51% 0.0 mm 14 W/m2
21:02 20.3 °C 10.1 °C 1015.2 hPa WNW 3.2 km/h 4.8 km/h 52% 0.0 mm 16 W/m2
21:07 20.2 °C 10.3 °C 1015.2 hPa WNW 6.4 km/h 11.3 km/h 53% 0.0 mm 12 W/m2
21:12 20.1 °C 10.2 °C 1015.2 hPa West 1.4 km/h 4.8 km/h 53% 0.0 mm 11 W/m2
21:17 19.9 °C 10 °C 1015.2 hPa WNW 3.2 km/h 11.3 km/h 53% 0.0 mm 7 W/m2
21:22 19.8 °C 10.2 °C 1015.2 hPa WNW 1.4 km/h 4.8 km/h 54% 0.0 mm 7 W/m2
21:27 19.7 °C 10.4 °C 1015.2 hPa NW 4.7 km/h 6.4 km/h 55% 0.0 mm 5 W/m2
21:32 19.6 °C 10.3 °C 1015.6 hPa West 3.2 km/h 4.8 km/h 55% 0.0 mm 5 W/m2
21:37 19.6 °C 10.3 °C 1015.6 hPa West 11.3 km/h 11.3 km/h 55% 0.0 mm 0 W/m2
21:42 19.5 °C 10.2 °C 1015.6 hPa WSW 1.4 km/h 3.2 km/h 55% 0.0 mm 0 W/m2
21:47 19.4 °C 10.1 °C 1015.6 hPa West 4.7 km/h 6.4 km/h 55% 0.0 mm 0 W/m2
21:52 19.3 °C 10.3 °C 1015.9 hPa WNW 3.2 km/h 4.8 km/h 56% 0.0 mm 0 W/m2
21:57 19.2 °C 10.2 °C 1015.9 hPa West 4.7 km/h 6.4 km/h 56% 0.0 mm 0 W/m2
22:02 19.2 °C 10.2 °C 1015.9 hPa NW 3.2 km/h 6.4 km/h 56% 0.0 mm 0 W/m2
22:07 19.2 °C 10.2 °C 1015.9 hPa NW 3.2 km/h 6.4 km/h 56% 0.0 mm 0 W/m2
22:12 19.1 °C 10.4 °C 1015.9 hPa NW 1.4 km/h 3.2 km/h 57% 0.0 mm 0 W/m2
22:17 19.1 °C 10.4 °C 1015.9 hPa WNW 1.4 km/h 8 km/h 57% 0.0 mm 0 W/m2
22:22 18.9 °C 10.2 °C 1016.3 hPa West 4.7 km/h 4.8 km/h 57% 0.0 mm 0 W/m2
22:27 18.8 °C 10.1 °C 1016.3 hPa West 3.2 km/h 4.8 km/h 57% 0.0 mm 0 W/m2
22:32 18.7 °C 10.3 °C 1016.3 hPa WNW 1.4 km/h 6.4 km/h 58% 0.0 mm 0 W/m2
22:37 18.6 °C 10.2 °C 1016.3 hPa West 3.2 km/h 4.8 km/h 58% 0.0 mm 0 W/m2
22:42 18.6 °C 10.2 °C 1016.3 hPa WSW 4.7 km/h 6.4 km/h 58% 0.0 mm 0 W/m2
22:47 18.4 °C 10.2 °C 1016.3 hPa West 4.7 km/h 6.4 km/h 59% 0.0 mm 0 W/m2
22:52 18.4 °C 10.2 °C 1016.3 hPa West 3.2 km/h 4.8 km/h 59% 0.0 mm 0 W/m2
22:57 18.3 °C 10.1 °C 1016.3 hPa WNW 1.4 km/h 6.4 km/h 59% 0.0 mm 0 W/m2
23:02 18.2 °C 10.1 °C 1016.3 hPa West 3.2 km/h 4.8 km/h 59% 0.0 mm 0 W/m2
23:07 18.2 °C 10.1 °C 1016.3 hPa West 3.2 km/h 6.4 km/h 59% 0.0 mm 0 W/m2
23:13 18.2 °C 10.1 °C 1016.3 hPa West 1.4 km/h 4.8 km/h 59% 0.0 mm 0 W/m2
23:18 18.2 °C 10.1 °C 1016.3 hPa West 3.2 km/h 6.4 km/h 59% 0.0 mm 0 W/m2
23:23 18.1 °C 10.2 °C 1016.6 hPa WSW 1.4 km/h 4.8 km/h 60% 0.0 mm 0 W/m2
23:28 17.9 °C 10 °C 1016.6 hPa WSW 3.2 km/h 6.4 km/h 60% 0.0 mm 0 W/m2
23:33 17.8 °C 10.2 °C 1016.6 hPa WSW 3.2 km/h 3.2 km/h 61% 0.0 mm 0 W/m2
23:38 17.6 °C 10 °C 1016.6 hPa WNW 1.4 km/h 3.2 km/h 61% 0.0 mm 0 W/m2
23:43 17.4 °C 10 °C 1016.6 hPa Calm   1.6 km/h 62% 0.0 mm 0 W/m2
23:48 17.2 °C 9.9 °C 1016.6 hPa WNW 1.4 km/h 3.2 km/h 62% 0.0 mm 0 W/m2
23:53 17.1 °C 10 °C 1016.6 hPa WNW 1.4 km/h 3.2 km/h 63% 0.0 mm 0 W/m2
23:58 17 °C 9.9 °C 1016.6 hPa WNW 3.2 km/h 3.2 km/h 63% 0.0 mm 0 W/m2
Juneau County Weather
Compliments of Weather Underground - 4 mb